Location: ?????????
(53.2086°N, 54.0693°E)
Time: 09:30:32
(UTC+00:00)

H-2A R/B - Pass Details

Date: 08 December 2019
Orbit: 733 x 837 km, 98.2° (Epoch: 20 January)

Event Time Altitude Azimuth Distance (km) Brightness Sun altitude
Exits shadow 15:35:07 13° 354° (N) 2,085 4.3 -29.8°
Drops below altitude 10° 15:35:41 10° 353° (N) 2,299 4.5 -29.9°
Sets 15:38:00 0° 348° (NNW) 3,215 5.4 -30.3°
